This is the latest recevied weather packets stored in our database for station/object N9BLE. If no packets are shown the sender has not sent any weather packets the latest 10 day(s).
| Time | Temp. | Humidity | Pressure | Rain* | Wind** | Luminosity | Snow |
|---|---|---|---|---|---|---|---|
| 1777649030 | 8.89° C | 57% | 1020.8 hPa | 0 mm | - | 224 W/m² | - |
| 1777648727 | 8.33° C | 62% | 1020.7 hPa | 0 mm | - | 93 W/m² | - |
| 1777648423 | 8.33° C | 63% | 1020.6 hPa | 0 mm | - | 121 W/m² | - |
| 1777648119 | 8.33° C | 63% | 1020.7 hPa | 0 mm | - | 111 W/m² | - |
| 1777647816 | 8.33° C | 66% | 1020.6 hPa | 0 mm | - | 159 W/m² | - |
| 1777647512 | 7.78° C | 70% | 1020.6 hPa | 0 mm | - | 188 W/m² | - |
| 1777647209 | 7.78° C | 69% | 1020.7 hPa | 0 mm | - | 111 W/m² | - |
| 1777646906 | 7.78° C | 70% | 1020.7 hPa | 0 mm | - | 258 W/m² | - |
| 1777646602 | 7.78° C | 72% | 1020.7 hPa | 0 mm | - | 68 W/m² | - |
| 1777646298 | 7.22° C | 76% | 1020.8 hPa | 0 mm | - | 175 W/m² | - |
| 1777645995 | 7.78° C | 73% | 1020.7 hPa | 0 mm | - | 102 W/m² | - |
| 1777645692 | 7.78° C | 77% | 1020.8 hPa | 0 mm | - | 100 W/m² | - |
| 1777645388 | 7.22° C | 74% | 1020.7 hPa | 0 mm | - | 99 W/m² | - |
| 1777645084 | 7.78° C | 80% | 1020.4 hPa | 0 mm | - | 99 W/m² | - |
| 1777644781 | 6.67° C | 81% | 1020.5 hPa | 0 mm | - | 166 W/m² | - |
| 1777644478 | 6.11° C | 81% | 1020.6 hPa | 0 mm | - | 138 W/m² | - |
| 1777644175 | 6.11° C | 83% | 1020.5 hPa | 0 mm | - | 90 W/m² | - |
| 1777643871 | 6.67° C | 83% | 1020.6 hPa | 0 mm | - | 58 W/m² | - |
| 1777643569 | 6.67° C | 84% | 1020.2 hPa | 0 mm | - | 73 W/m² | - |
| 1777643265 | 6.11° C | 84% | 1020.4 hPa | 0 mm | - | 133 W/m² | - |
| 1777642962 | 6.67° C | 83% | 1020.3 hPa | 0 mm | - | 91 W/m² | - |
| 1777642658 | 6.11° C | 83% | 1020.3 hPa | 0 mm | - | 85 W/m² | - |
| 1777642355 | 6.11° C | 85% | 1020.3 hPa | 0 mm | - | 77 W/m² | - |
| 1777642052 | 5.56° C | 85% | 1020 hPa | 0 mm | - | 111 W/m² | - |
| 1777641748 | 6.11° C | 85% | 1020.4 hPa | 0 mm | - | 70 W/m² | - |
* Rain latest hour (hover to see other rain measurements)
** Current wind speed in m/s (hover to see current wind gust speed)